Tracking 28531 objects as of 2-Mar-2024
HD Live streaming from Space Station
objects crossing your sky now

ICEYE-X35

Track ICEYE-X35 now!
10-day predictions


NORAD ID: 58302
Int'l Code: 2023-174AY
Perigee: 518.1 km
Apogee: 540.3 km
Inclination: 97.5 °
Period: 95.1 minutes
Semi major axis: 6900 km
RCS: Unknown
Launch date: November 11, 2023
Source: United States (US)
Launch site: AIR FORCE WESTERN TEST RANGE (AFWTR)
Your satellite tracking list
Your tracking list is empty




NASA's NSSDC Master Catalog

Two Line Element Set (TLE):
1 58302U 23174AY  24061.88844273  .00011030  00000-0  59790-3 0  9990
2 58302  97.4674 137.9167 0016151 252.0526 107.8946 15.14645178 17428
Source of the keplerian elements: AFSPC